,,,PA_Meas_PMT16A,,PR_Meas_QMR101_102,,RH_Meas_QMH101,,SR_Meas_QMS101,,TA_Meas_QMH101,,GenWind,,GenWind,
date,time,status,PA,status,PR,status,RH,status,SR,status,TA,status,DirAvg,status,SpdAvg,
2012-04-23, 00:00:04,VALID,1000.45,VALID,0,VALID,92.6312,VALID,0,VALID,24.6166,VALID,113,VALID,0.799609,
2012-04-23, 00:01:04,VALID,1000.45,VALID,0,VALID,92.6465,VALID,0,VALID,24.638,VALID,113,VALID,0.704297,
2012-04-23, 00:02:04,VALID,1000.45,VALID,0,VALID,92.5854,VALID,0,VALID,24.5971,VALID,113,VALID,0.58125,
2012-04-23, 00:03:04,VALID,1000.44,VALID,0,VALID,92.5397,VALID,0,VALID,24.5971,VALID,113,VALID,0.550781,
2012-04-23, 00:04:04,VALID,1000.41,VALID,0,VALID,92.5549,VALID,0,VALID,24.5989,VALID,113,VALID,0.607422,
2012-04-23, 00:05:04,VALID,1000.41,VALID,0,VALID,92.5473,VALID,0,VALID,24.5989,VALID,113,VALID,0.467578,
2012-04-23, 00:06:04,VALID,1000.42,VALID,0,VALID,92.616,VALID,0,VALID,24.5794,VALID,113,VALID,0.51875,
2012-04-23, 00:07:04,VALID,1000.4,VALID,0,VALID,92.6617,VALID,0,VALID,24.5794,VALID,113,VALID,0.417578,
2012-04-23, 00:08:04,VALID,1000.38,VALID,0,VALID,92.7685,VALID,0,VALID,24.5599,VALID,113,VALID,0.303516,
2012-04-23, 00:09:04,VALID,1000.41,VALID,0,VALID,92.8601,VALID,0,VALID,24.5599,VALID,113,VALID,0.471875,
2012-04-23, 00:10:04,VALID,1000.43,VALID,0,VALID,92.9822,VALID,0,VALID,24.5385,VALID,113,VALID,0.351953,
2012-04-23, 00:11:04,VALID,1000.37,VALID,0,VALID,93.0508,VALID,0,VALID,24.5599,VALID,113,VALID,0.188281,
2012-04-23, 00:12:04,VALID,1000.4,VALID,0,VALID,93.0356,VALID,0,VALID,24.5385,VALID,113,VALID,0,
2012-04-23, 00:13:04,VALID,1000.39,VALID,0,VALID,93.028,VALID,0,VALID,24.519,VALID,113,VALID,0.281641,
2012-04-23, 00:14:04,VALID,1000.41,VALID,0,VALID,92.944,VALID,0,VALID,24.5209,VALID,113,VALID,0.516406,
2012-04-23, 00:15:04,VALID,1000.4,VALID,0,VALID,93.0127,VALID,0,VALID,24.5013,VALID,113,VALID,0.446484,
2012-04-23, 00:16:04,VALID,1000.37,VALID,0,VALID,93.0814,VALID,0,VALID,24.48,VALID,113,VALID,0.369141,
2012-04-23, 00:17:04,VALID,1000.36,VALID,0,VALID,93.15,VALID,0,VALID,24.4818,VALID,113,VALID,0.167969,
2012-04-23, 00:18:04,VALID,1000.35,VALID,0,VALID,93.1805,VALID,0,VALID,24.4604,VALID,113,VALID,0,
2012-04-23, 00:19:04,VALID,1000.35,VALID,0,VALID,93.1805,VALID,0,VALID,24.4604,VALID,113,VALID,0,
2012-04-23, 00:20:04,VALID,1000.3,VALID,0,VALID,93.1882,VALID,0,VALID,24.4409,VALID,113,VALID,0,
2012-04-23, 00:21:04,VALID,1000.27,VALID,0,VALID,93.1958,VALID,0,VALID,24.4428,VALID,113,VALID,0,
2012-04-23, 00:22:04,VALID,1000.25,VALID,0,VALID,93.2187,VALID,0,VALID,24.4428,VALID,113,VALID,0,
2012-04-23, 00:23:04,VALID,1000.26,VALID,0,VALID,93.1805,VALID,0,VALID,24.4233,VALID,113,VALID,0,
2012-04-23, 00:24:04,VALID,1000.26,VALID,0,VALID,93.1271,VALID,0,VALID,24.4037,VALID,113,VALID,0,
2012-04-23, 00:25:04,VALID,1000.24,VALID,0,VALID,93.0814,VALID,0,VALID,24.3842,VALID,113,VALID,0,
2012-04-23, 00:26:04,VALID,1000.23,VALID,0,VALID,93.1119,VALID,0,VALID,24.3842,VALID,113,VALID,0,
2012-04-23, 00:27:04,VALID,1000.21,VALID,0,VALID,93.15,VALID,0,VALID,24.3842,VALID,113,VALID,0,
2012-04-23, 00:28:04,VALID,1000.17,VALID,0,VALID,93.2416,VALID,0,VALID,24.3842,VALID,113,VALID,0,
2012-04-23, 00:29:04,VALID,1000.19,VALID,0,VALID,93.2645,VALID,0,VALID,24.4037,VALID,113,VALID,0,
2012-04-23, 00:30:04,VALID,1000.15,VALID,0,VALID,93.3179,VALID,0,VALID,24.4037,VALID,113,VALID,0.229297,
2012-04-23, 00:31:04,VALID,1000.11,VALID,0,VALID,93.3484,VALID,0,VALID,24.4233,VALID,114,VALID,0.630078,
2012-04-23, 00:32:04,VALID,1000.07,VALID,0,VALID,93.3255,VALID,0,VALID,24.4037,VALID,114,VALID,0.346094,
2012-04-23, 00:33:04,VALID,1000.07,VALID,0,VALID,93.2492,VALID,0,VALID,24.4037,VALID,114,VALID,0.360156,
2012-04-23, 00:34:04,VALID,1000.07,VALID,0,VALID,93.2187,VALID,0,VALID,24.4233,VALID,114,VALID,0.341406,
2012-04-23, 00:35:04,VALID,1000,VALID,0,VALID,93.1348,VALID,0,VALID,24.4019,VALID,114,VALID,0.376563,
2012-04-23, 00:36:04,VALID,1000,VALID,0,VALID,93.1271,VALID,0,VALID,24.4428,VALID,114,VALID,0.471484,
2012-04-23, 00:37:04,VALID,999.966,VALID,0,VALID,93.1195,VALID,0,VALID,24.4214,VALID,114,VALID,0.423047,
2012-04-23, 00:38:04,VALID,999.936,VALID,0,VALID,93.0737,VALID,0,VALID,24.4428,VALID,114,VALID,0.387109,
2012-04-23, 00:39:04,VALID,999.945,VALID,0,VALID,93.0814,VALID,0,VALID,24.4409,VALID,114,VALID,0.517969,
2012-04-23, 00:40:04,VALID,999.917,VALID,0,VALID,93.0432,VALID,0,VALID,24.4604,VALID,114,VALID,0.670313,
2012-04-23, 00:41:04,VALID,999.887,VALID,0,VALID,93.0356,VALID,0,VALID,24.4818,VALID,114,VALID,0.521484,
2012-04-23, 00:42:04,VALID,999.906,VALID,0,VALID,93.0127,VALID,0,VALID,24.48,VALID,114,VALID,0.367969,
2012-04-23, 00:43:04,VALID,999.856,VALID,0,VALID,93.0051,VALID,0,VALID,24.5013,VALID,114,VALID,0.478516,
2012-04-23, 00:44:04,VALID,999.869,VALID,0,VALID,92.9822,VALID,0,VALID,24.48,VALID,114,VALID,0.340234,
2012-04-23, 00:45:04,VALID,999.867,VALID,0,VALID,92.9745,VALID,0,VALID,24.5209,VALID,114,VALID,0.266797,
2012-04-23, 00:46:04,VALID,999.844,VALID,0,VALID,92.9364,VALID,0,VALID,24.519,VALID,114,VALID,0.0933594,
2012-04-23, 00:47:04,VALID,999.861,VALID,0,VALID,92.8754,VALID,0,VALID,24.5404,VALID,114,VALID,0,
2012-04-23, 00:48:04,VALID,999.832,VALID,0,VALID,92.8143,VALID,0,VALID,24.5404,VALID,114,VALID,0,
2012-04-23, 00:49:04,VALID,999.854,VALID,0,VALID,92.8143,VALID,0,VALID,24.5209,VALID,114,VALID,0,
2012-04-23, 00:50:04,VALID,999.852,VALID,0,VALID,92.883,VALID,0,VALID,24.5404,VALID,114,VALID,0,
2012-04-23, 00:51:04,VALID,999.852,VALID,0,VALID,92.9288,VALID,0,VALID,24.4995,VALID,114,VALID,0,
2012-04-23, 00:52:04,VALID,999.843,VALID,0,VALID,92.9288,VALID,0,VALID,24.48,VALID,114,VALID,0,
2012-04-23, 00:53:04,VALID,999.821,VALID,0,VALID,92.883,VALID,0,VALID,24.5013,VALID,114,VALID,0,
2012-04-23, 00:54:04,VALID,999.81,VALID,0,VALID,92.883,VALID,0,VALID,24.4604,VALID,114,VALID,0,
2012-04-23, 00:55:04,VALID,999.792,VALID,0,VALID,92.9974,VALID,0,VALID,24.4409,VALID,114,VALID,0,
2012-04-23, 00:56:04,VALID,999.79,VALID,0,VALID,93.0966,VALID,0,VALID,24.4409,VALID,114,VALID,0,
2012-04-23, 00:57:04,VALID,999.781,VALID,0,VALID,93.15,VALID,0,VALID,24.4604,VALID,114,VALID,0,
2012-04-23, 00:58:04,VALID,999.766,VALID,0,VALID,93.2187,VALID,0,VALID,24.4409,VALID,114,VALID,0,
2012-04-23, 00:59:05,VALID,999.741,VALID,0,VALID,93.2416,VALID,0,VALID,24.4409,VALID,114,VALID,0,
2012-04-23, 01:00:05,VALID,999.716,VALID,0,VALID,93.2721,VALID,0,VALID,24.4214,VALID,114,VALID,0,
2012-04-23, 01:01:05,VALID,999.722,VALID,0,VALID,93.2721,VALID,0,VALID,24.4214,VALID,114,VALID,0,
2012-04-23, 01:02:05,VALID,999.691,VALID,0,VALID,93.3408,VALID,0,VALID,24.4233,VALID,114,VALID,0,
2012-04-23, 01:03:05,VALID,999.698,VALID,0,VALID,93.356,VALID,0,VALID,24.4019,VALID,114,VALID,0,
2012-04-23, 01:04:05,VALID,999.722,VALID,0,VALID,93.3713,VALID,0,VALID,24.3824,VALID,114,VALID,0,
2012-04-23, 01:05:05,VALID,999.702,VALID,0,VALID,93.3713,VALID,0,VALID,24.3629,VALID,114,VALID,0,
2012-04-23, 01:06:05,VALID,999.689,VALID,0,VALID,93.4247,VALID,0,VALID,24.3647,VALID,114,VALID,0,
2012-04-23, 01:07:05,VALID,999.696,VALID,0,VALID,93.4705,VALID,0,VALID,24.3433,VALID,114,VALID,0,
2012-04-23, 01:08:05,VALID,999.688,VALID,0,VALID,93.501,VALID,0,VALID,24.3452,VALID,114,VALID,0,
2012-04-23, 01:09:05,VALID,999.686,VALID,0,VALID,93.5239,VALID,0,VALID,24.3257,VALID,114,VALID,0,
2012-04-23, 01:10:05,VALID,999.654,VALID,0,VALID,93.5468,VALID,0,VALID,24.3238,VALID,114,VALID,0,
2012-04-23, 01:11:05,VALID,999.702,VALID,0,VALID,93.5773,VALID,0,VALID,24.3043,VALID,114,VALID,0,
2012-04-23, 01:12:05,VALID,999.667,VALID,0,VALID,93.5391,VALID,0,VALID,24.3062,VALID,114,VALID,0,
2012-04-23, 01:13:05,VALID,999.678,VALID,0,VALID,93.562,VALID,0,VALID,24.2671,VALID,114,VALID,0,
2012-04-23, 01:14:05,VALID,999.619,VALID,0,VALID,93.6536,VALID,0,VALID,24.2671,VALID,114,VALID,0,
2012-04-23, 01:15:05,VALID,999.608,VALID,0,VALID,93.7985,VALID,0,VALID,24.2885,VALID,109,VALID,0.563672,
2012-04-23, 01:16:05,VALID,999.605,VALID,0,VALID,93.8748,VALID,0,VALID,24.3062,VALID,107,VALID,0.600391,
2012-04-23, 01:17:05,VALID,999.601,VALID,0,VALID,93.8977,VALID,0,VALID,24.2866,VALID,80,VALID,0.593359,
2012-04-23, 01:18:05,VALID,999.583,VALID,0,VALID,93.7833,VALID,0,VALID,24.2866,VALID,77,VALID,0.593359,
2012-04-23, 01:19:05,VALID,999.6,VALID,0,VALID,93.7528,VALID,0,VALID,24.3062,VALID,77,VALID,0.441406,
2012-04-23, 01:20:05,VALID,999.605,VALID,0,VALID,93.646,VALID,0,VALID,24.2671,VALID,77,VALID,0,
2012-04-23, 01:21:05,VALID,999.612,VALID,0,VALID,93.5697,VALID,0,VALID,24.2263,VALID,77,VALID,0,
2012-04-23, 01:22:05,VALID,999.616,VALID,0,VALID,93.6612,VALID,0,VALID,24.2263,VALID,77,VALID,0,
2012-04-23, 01:23:05,VALID,999.639,VALID,0,VALID,93.7223,VALID,0,VALID,24.2476,VALID,77,VALID,0,
2012-04-23, 01:24:05,VALID,999.621,VALID,0,VALID,93.7223,VALID,0,VALID,24.2281,VALID,77,VALID,0,
2012-04-23, 01:25:05,VALID,999.646,VALID,0,VALID,93.7146,VALID,0,VALID,24.2067,VALID,77,VALID,0,
2012-04-23, 01:26:05,VALID,999.613,VALID,0,VALID,93.7299,VALID,0,VALID,24.2067,VALID,77,VALID,0,
2012-04-23, 01:27:05,VALID,999.623,VALID,0,VALID,93.7757,VALID,0,VALID,24.2086,VALID,77,VALID,0,
2012-04-23, 01:28:05,VALID,999.615,VALID,0,VALID,93.8062,VALID,0,VALID,24.2067,VALID,77,VALID,0,
2012-04-23, 01:29:05,VALID,999.631,VALID,0,VALID,93.7985,VALID,0,VALID,24.1872,VALID,77,VALID,0,
2012-04-23, 01:30:05,VALID,999.661,VALID,0,VALID,93.6994,VALID,0,VALID,24.1677,VALID,77,VALID,0,
2012-04-23, 01:31:05,VALID,999.66,VALID,0,VALID,93.6688,VALID,0,VALID,24.15,VALID,77,VALID,0,
2012-04-23, 01:32:05,VALID,999.634,VALID,0,VALID,93.6307,VALID,0,VALID,24.15,VALID,77,VALID,0,
2012-04-23, 01:33:05,VALID,999.651,VALID,0,VALID,93.6765,VALID,0,VALID,24.1287,VALID,77,VALID,0,
2012-04-23, 01:34:05,VALID,999.648,VALID,0,VALID,93.7299,VALID,0,VALID,24.1287,VALID,77,VALID,0,
2012-04-23, 01:35:05,VALID,999.632,VALID,0,VALID,93.768,VALID,0,VALID,24.1482,VALID,77,VALID,0,
2012-04-23, 01:36:05,VALID,999.623,VALID,0,VALID,93.8062,VALID,0,VALID,24.15,VALID,77,VALID,0,
2012-04-23, 01:37:05,VALID,999.642,VALID,0,VALID,93.8214,VALID,0,VALID,24.1287,VALID,77,VALID,0,
2012-04-23, 01:38:05,VALID,999.652,VALID,0,VALID,93.8443,VALID,0,VALID,24.1482,VALID,77,VALID,0,
2012-04-23, 01:39:05,VALID,999.618,VALID,0,VALID,93.8062,VALID,0,VALID,24.1482,VALID,77,VALID,0,
2012-04-23, 01:40:05,VALID,999.624,VALID,0,VALID,93.8672,VALID,0,VALID,24.1696,VALID,78,VALID,0,
2012-04-23, 01:41:05,VALID,999.609,VALID,0,VALID,93.8672,VALID,0,VALID,24.1696,VALID,115,VALID,0,
2012-04-23, 01:42:05,VALID,999.618,VALID,0,VALID,93.8977,VALID,0,VALID,24.1891,VALID,117,VALID,0,
2012-04-23, 01:43:05,VALID,999.635,VALID,0,VALID,93.9206,VALID,0,VALID,24.2086,VALID,124,VALID,0,
2012-04-23, 01:44:05,VALID,999.601,VALID,0,VALID,93.9206,VALID,0.104696,VALID,24.1872,VALID,129,VALID,0,
2012-04-23, 01:45:05,VALID,999.602,VALID,0,VALID,93.852,VALID,0,VALID,24.1872,VALID,129,VALID,0,
2012-04-23, 01:46:05,VALID,999.607,VALID,0,VALID,93.8138,VALID,0,VALID,24.2281,VALID,129,VALID,0,
2012-04-23, 01:47:05,VALID,999.621,VALID,0,VALID,93.7833,VALID,0,VALID,24.2281,VALID,139,VALID,0.702734,
2012-04-23, 01:48:05,VALID,999.636,VALID,0,VALID,93.8062,VALID,0,VALID,24.2263,VALID,139,VALID,0.649219,
2012-04-23, 01:49:05,VALID,999.603,VALID,0,VALID,93.8062,VALID,0,VALID,24.2476,VALID,139,VALID,0.423047,
2012-04-23, 01:50:05,VALID,999.617,VALID,0,VALID,93.7985,VALID,0,VALID,24.2263,VALID,140,VALID,0.565234,
2012-04-23, 01:51:05,VALID,999.615,VALID,0,VALID,93.8138,VALID,0,VALID,24.2067,VALID,185,VALID,0.6375,
2012-04-23, 01:52:05,VALID,999.627,VALID,0,VALID,93.7985,VALID,0,VALID,24.2476,VALID,185,VALID,0.495703,
2012-04-23, 01:53:05,VALID,999.627,VALID,0,VALID,93.8214,VALID,0,VALID,24.2281,VALID,185,VALID,0.280859,
2012-04-23, 01:54:05,VALID,999.627,VALID,0,VALID,93.7985,VALID,0,VALID,24.2281,VALID,185,VALID,0.207031,
2012-04-23, 01:55:05,VALID,999.618,VALID,0,VALID,93.8138,VALID,0,VALID,24.2281,VALID,185,VALID,0.236328,
2012-04-23, 01:56:05,VALID,999.606,VALID,0,VALID,93.7833,VALID,0,VALID,24.1872,VALID,185,VALID,0.144922,
2012-04-23, 01:57:05,VALID,999.589,VALID,0,VALID,93.7833,VALID,0,VALID,24.1677,VALID,185,VALID,0.30625,
2012-04-23, 01:58:05,VALID,999.603,VALID,0,VALID,93.768,VALID,0,VALID,24.1482,VALID,185,VALID,0.287891,
2012-04-23, 01:59:05,VALID,999.552,VALID,0,VALID,93.7985,VALID,0,VALID,24.1287,VALID,185,VALID,0.410156,
2012-04-23, 02:00:05,VALID,999.55,VALID,0,VALID,93.7757,VALID,0,VALID,24.1305,VALID,185,VALID,0.525,
2012-04-23, 02:01:05,VALID,999.558,VALID,0,VALID,93.6765,VALID,0,VALID,24.111,VALID,62,VALID,0.690234,
2012-04-23, 02:02:05,VALID,999.531,VALID,0,VALID,93.6841,VALID,0,VALID,24.0506,VALID,62,VALID,0.717578,
2012-04-23, 02:03:05,VALID,999.529,VALID,0,VALID,93.768,VALID,0,VALID,24.0525,VALID,62,VALID,0.810156,
2012-04-23, 02:04:05,VALID,999.541,VALID,0,VALID,93.8672,VALID,0,VALID,24.0329,VALID,73,VALID,0.845703,
2012-04-23, 02:05:05,VALID,999.527,VALID,0,VALID,93.9206,VALID,0,VALID,24.0329,VALID,74,VALID,0.857031,
2012-04-23, 02:06:05,VALID,999.537,VALID,0,VALID,93.9283,VALID,0,VALID,24.0329,VALID,74,VALID,0.760938,
2012-04-23, 02:07:05,VALID,999.489,VALID,0,VALID,93.9206,VALID,0,VALID,24.0134,VALID,76,VALID,0.751172,
2012-04-23, 02:08:05,VALID,999.519,VALID,0,VALID,93.8901,VALID,0,VALID,23.9744,VALID,76,VALID,0.735547,
2012-04-23, 02:09:05,VALID,999.513,VALID,0,VALID,93.8367,VALID,0,VALID,23.9744,VALID,76,VALID,0.830859,
2012-04-23, 02:10:05,VALID,999.519,VALID,0,VALID,93.852,VALID,0,VALID,23.9549,VALID,76,VALID,0.759375,
2012-04-23, 02:11:05,VALID,999.499,VALID,0,VALID,93.7985,VALID,0,VALID,23.9354,VALID,76,VALID,0.914453,
2012-04-23, 02:12:05,VALID,999.503,VALID,0,VALID,93.7833,VALID,0,VALID,23.9159,VALID,74,VALID,0.676562,
2012-04-23, 02:13:05,VALID,999.543,VALID,0,VALID,93.7604,VALID,0,VALID,23.8768,VALID,74,VALID,0.382813,
2012-04-23, 02:14:05,VALID,999.553,VALID,0,VALID,93.7299,VALID,0,VALID,23.836,VALID,74,VALID,0.479297,
2012-04-23, 02:15:05,VALID,999.495,VALID,0,VALID,93.7223,VALID,0,VALID,23.797,VALID,74,VALID,0.460156,
2012-04-23, 02:16:05,VALID,999.525,VALID,0,VALID,93.7909,VALID,0,VALID,23.797,VALID,74,VALID,0.556641,
2012-04-23, 02:17:05,VALID,999.514,VALID,0,VALID,93.9359,VALID,0,VALID,23.797,VALID,8,VALID,0.770312,
2012-04-23, 02:18:05,VALID,999.551,VALID,0,VALID,94.0656,VALID,0,VALID,23.797,VALID,354,VALID,0.580469,
2012-04-23, 02:19:05,VALID,999.506,VALID,0,VALID,94.1724,VALID,0,VALID,23.8165,VALID,354,VALID,0.429297,
2012-04-23, 02:20:05,VALID,999.531,VALID,0,VALID,94.2334,VALID,0,VALID,23.836,VALID,354,VALID,0.705469,
2012-04-23, 02:21:05,VALID,999.531,VALID,0,VALID,94.2792,VALID,0,VALID,23.8555,VALID,330,VALID,0.845703,
2012-04-23, 02:22:05,VALID,999.574,VALID,0,VALID,94.4089,VALID,0,VALID,23.875,VALID,317,VALID,1.11211,
2012-04-23, 02:23:05,VALID,999.594,VALID,0,VALID,94.4852,VALID,0,VALID,23.9549,VALID,329,VALID,1.16445,
2012-04-23, 02:24:05,VALID,999.598,VALID,0,VALID,94.5615,VALID,0,VALID,23.9726,VALID,306,VALID,1.27305,
2012-04-23, 02:25:05,VALID,999.629,VALID,0,VALID,94.6073,VALID,0,VALID,24.0116,VALID,330,VALID,1.22461,
2012-04-23, 02:26:05,VALID,999.636,VALID,0,VALID,94.6226,VALID,0,VALID,24.0329,VALID,337,VALID,1.5457,
2012-04-23, 02:27:05,VALID,999.623,VALID,0,VALID,94.5691,VALID,0,VALID,24.0525,VALID,327,VALID,1.28398,
2012-04-23, 02:28:05,VALID,999.678,VALID,0,VALID,94.5386,VALID,0,VALID,24.0506,VALID,314,VALID,1.41602,
2012-04-23, 02:29:05,VALID,999.67,VALID,0,VALID,94.4623,VALID,0,VALID,24.072,VALID,280,VALID,0.919922,
2012-04-23, 02:30:05,VALID,999.67,VALID,0,VALID,94.4318,VALID,0,VALID,24.0701,VALID,274,VALID,0.558984,
2012-04-23, 02:31:05,VALID,999.669,VALID,0,VALID,94.4089,VALID,0,VALID,24.0897,VALID,275,VALID,0.349609,
2012-04-23, 02:32:05,VALID,999.626,VALID,0,VALID,94.3631,VALID,0,VALID,24.0897,VALID,275,VALID,0,
2012-04-23, 02:33:05,VALID,999.601,VALID,0,VALID,94.3021,VALID,0,VALID,24.1305,VALID,275,VALID,0.335938,
2012-04-23, 02:34:05,VALID,999.604,VALID,0,VALID,94.2716,VALID,0,VALID,24.1305,VALID,277,VALID,0.541406,
2012-04-23, 02:35:05,VALID,999.594,VALID,0,VALID,94.2563,VALID,0,VALID,24.1287,VALID,277,VALID,0.650391,
2012-04-23, 02:36:05,VALID,999.592,VALID,0,VALID,94.2029,VALID,0,VALID,24.1482,VALID,278,VALID,0.623828,
2012-04-23, 02:37:05,VALID,999.62,VALID,0,VALID,94.1953,VALID,0,VALID,24.1677,VALID,285,VALID,0.574219,
2012-04-23, 02:38:05,VALID,999.648,VALID,0,VALID,94.119,VALID,0,VALID,24.1677,VALID,287,VALID,0.575391,
2012-04-23, 02:39:05,VALID,999.633,VALID,0,VALID,94.0656,VALID,0,VALID,24.1872,VALID,287,VALID,0.328516,
2012-04-23, 02:40:05,VALID,999.677,VALID,0,VALID,94.0045,VALID,0,VALID,24.2067,VALID,287,VALID,0.638281,
2012-04-23, 02:41:05,VALID,999.685,VALID,0,VALID,93.9664,VALID,0,VALID,24.2263,VALID,277,VALID,0.576953,
2012-04-23, 02:42:05,VALID,999.697,VALID,0,VALID,93.9359,VALID,0,VALID,24.2476,VALID,286,VALID,0.926562,
2012-04-23, 02:43:05,VALID,999.749,VALID,0,VALID,93.8977,VALID,0,VALID,24.2671,VALID,274,VALID,1.12031,
2012-04-23, 02:44:05,VALID,999.689,VALID,0,VALID,93.8291,VALID,0,VALID,24.2458,VALID,284,VALID,2.85859,
2012-04-23, 02:45:05,VALID,999.739,VALID,0.5,VALID,93.7146,VALID,0,VALID,24.2263,VALID,297,VALID,1.27539,
2012-04-23, 02:46:05,VALID,999.728,VALID,0,VALID,93.7451,VALID,0,VALID,24.2263,VALID,308,VALID,2.55781,
2012-04-23, 02:47:05,VALID,999.731,VALID,0.5,VALID,93.7757,VALID,0,VALID,24.2086,VALID,308,VALID,1.60898,
2012-04-23, 02:48:05,VALID,999.731,VALID,0,VALID,93.8214,VALID,0,VALID,24.1482,VALID,319,VALID,0.994531,
2012-04-23, 02:49:05,VALID,999.695,VALID,0.5,VALID,93.9283,VALID,0,VALID,24.15,VALID,323,VALID,0.466797,
2012-04-23, 02:50:05,VALID,999.717,VALID,0.5,VALID,94.0274,VALID,0,VALID,24.111,VALID,337,VALID,1.41016,
2012-04-23, 02:51:05,VALID,999.702,VALID,0,VALID,94.0656,VALID,0,VALID,24.0506,VALID,333,VALID,1.31836,
2012-04-23, 02:52:05,VALID,999.685,VALID,0.5,VALID,94.058,VALID,0,VALID,24.0134,VALID,296,VALID,0.557031,
2012-04-23, 02:53:05,VALID,999.682,VALID,0,VALID,94.0351,VALID,0,VALID,23.9531,VALID,331,VALID,1.5957,
2012-04-23, 02:54:05,VALID,999.692,VALID,0.5,VALID,94.0656,VALID,0,VALID,23.9354,VALID,327,VALID,0.7875,
2012-04-23, 02:55:05,VALID,999.636,VALID,0,VALID,94.1877,VALID,0,VALID,23.914,VALID,5,VALID,1.40156,
2012-04-23, 02:56:05,VALID,999.635,VALID,0,VALID,94.2563,VALID,0,VALID,23.8945,VALID,355,VALID,1.87227,
2012-04-23, 02:57:05,VALID,999.685,VALID,0,VALID,94.2868,VALID,0,VALID,23.8963,VALID,339,VALID,1.06094,
2012-04-23, 02:58:05,VALID,999.647,VALID,0,VALID,94.3555,VALID,0,VALID,23.8555,VALID,345,VALID,0.567969,
2012-04-23, 02:59:05,VALID,999.659,VALID,0,VALID,94.4165,VALID,0,VALID,23.875,VALID,38,VALID,0.927344,
2012-04-23, 03:00:05,VALID,999.645,VALID,0,VALID,94.47,VALID,0,VALID,23.8555,VALID,28,VALID,1.59609,
2012-04-23, 03:01:05,VALID,999.639,VALID,0.5,VALID,94.4928,VALID,0,VALID,23.836,VALID,352,VALID,2.64727,
2012-04-23, 03:02:05,VALID,999.634,VALID,0,VALID,94.5234,VALID,0,VALID,23.8555,VALID,20,VALID,1.42891,
2012-04-23, 03:03:05,VALID,999.65,VALID,0,VALID,94.5005,VALID,0,VALID,23.836,VALID,3,VALID,1.24883,
2012-04-23, 03:04:05,VALID,999.677,VALID,0,VALID,94.5234,VALID,0,VALID,23.836,VALID,316,VALID,0.974609,
2012-04-23, 03:05:05,VALID,999.672,VALID,0,VALID,94.5539,VALID,0,VALID,23.836,VALID,309,VALID,0.324609,
2012-04-23, 03:06:05,VALID,999.689,VALID,0,VALID,94.592,VALID,0,VALID,23.8555,VALID,315,VALID,0.442578,
2012-04-23, 03:07:05,VALID,999.674,VALID,0,VALID,94.6378,VALID,0,VALID,23.836,VALID,93,VALID,1.03984,
2012-04-23, 03:08:05,VALID,999.699,VALID,0,VALID,94.6531,VALID,0,VALID,23.8573,VALID,168,VALID,0.884766,
2012-04-23, 03:09:05,VALID,999.718,VALID,0,VALID,94.6454,VALID,0,VALID,23.836,VALID,221,VALID,0.673437,
2012-04-23, 03:10:05,VALID,999.717,VALID,0,VALID,94.6607,VALID,0,VALID,23.8165,VALID,180,VALID,0.86875,
2012-04-23, 03:11:05,VALID,999.739,VALID,0,VALID,94.6683,VALID,0,VALID,23.8378,VALID,174,VALID,1.03555,
2012-04-23, 03:12:05,VALID,999.769,VALID,0,VALID,94.676,VALID,0,VALID,23.8165,VALID,190,VALID,0.929297,
2012-04-23, 03:13:05,VALID,999.792,VALID,0,VALID,94.7141,VALID,0.104696,VALID,23.8165,VALID,200,VALID,0.460156,
2012-04-23, 03:14:05,VALID,999.797,VALID,0,VALID,94.7217,VALID,0,VALID,23.836,VALID,200,VALID,0.158984,
2012-04-23, 03:15:05,VALID,999.873,VALID,0,VALID,94.7523,VALID,0,VALID,23.836,VALID,200,VALID,0.512109,
2012-04-23, 03:16:05,VALID,999.856,VALID,0,VALID,94.7751,VALID,0,VALID,23.836,VALID,200,VALID,0.251172,
2012-04-23, 03:17:05,VALID,999.851,VALID,0,VALID,94.8133,VALID,0,VALID,23.8555,VALID,274,VALID,0.878125,
2012-04-23, 03:18:05,VALID,999.9,VALID,0,VALID,94.8438,VALID,0.104696,VALID,23.8555,VALID,275,VALID,0.75625,
2012-04-23, 03:19:05,VALID,999.915,VALID,0,VALID,94.8591,VALID,0,VALID,23.8555,VALID,266,VALID,0.926953,
2012-04-23, 03:20:05,VALID,999.904,VALID,0,VALID,94.9125,VALID,0,VALID,23.875,VALID,296,VALID,0.808594,
2012-04-23, 03:21:05,VALID,999.922,VALID,1,VALID,94.9125,VALID,0,VALID,23.8555,VALID,267,VALID,2.33945,
2012-04-23, 03:22:05,VALID,999.904,VALID,1,VALID,94.9201,VALID,0,VALID,23.836,VALID,300,VALID,0.817187,
2012-04-23, 03:23:05,VALID,999.912,VALID,0.5,VALID,94.9125,VALID,0,VALID,23.797,VALID,291,VALID,0.621484,
2012-04-23, 03:24:05,VALID,999.91,VALID,1,VALID,94.8743,VALID,0,VALID,23.7775,VALID,318,VALID,1.1625,
2012-04-23, 03:25:05,VALID,999.941,VALID,0.5,VALID,94.8743,VALID,0,VALID,23.7189,VALID,300,VALID,1.34375,
2012-04-23, 03:26:05,VALID,999.922,VALID,0.5,VALID,94.8667,VALID,0,VALID,23.6799,VALID,284,VALID,1.03906,
2012-04-23, 03:27:05,VALID,999.925,VALID,1,VALID,94.9048,VALID,0,VALID,23.7012,VALID,322,VALID,1.33242,
2012-04-23, 03:28:05,VALID,999.965,VALID,1,VALID,94.9506,VALID,0,VALID,23.7012,VALID,317,VALID,1.31914,
2012-04-23, 03:29:05,VALID,999.954,VALID,1.5,VALID,94.9659,VALID,0,VALID,23.6604,VALID,303,VALID,1.55625,
2012-04-23, 03:30:05,VALID,999.956,VALID,1.5,VALID,94.9964,VALID,0,VALID,23.6409,VALID,294,VALID,1.54766,
2012-04-23, 03:31:05,VALID,999.941,VALID,1.5,VALID,95.0269,VALID,0,VALID,23.6427,VALID,295,VALID,1.33164,
2012-04-23, 03:32:05,VALID,999.948,VALID,1.5,VALID,95.0651,VALID,0,VALID,23.6214,VALID,297,VALID,1.52305,
2012-04-23, 03:33:05,VALID,999.928,VALID,1,VALID,95.088,VALID,0,VALID,23.5628,VALID,283,VALID,0.820313,
2012-04-23, 03:34:05,VALID,999.964,VALID,1,VALID,95.0956,VALID,0,VALID,23.5646,VALID,289,VALID,0.905859,
2012-04-23, 03:35:05,VALID,999.961,VALID,1.5,VALID,95.1261,VALID,0,VALID,23.5433,VALID,267,VALID,0.94375,
2012-04-23, 03:36:05,VALID,999.971,VALID,1,VALID,95.149,VALID,0,VALID,23.5238,VALID,281,VALID,0.437109,
2012-04-23, 03:37:05,VALID,999.952,VALID,1,VALID,95.1871,VALID,0,VALID,23.5256,VALID,277,VALID,0.564453,
2012-04-23, 03:38:05,VALID,999.94,VALID,0.5,VALID,95.21,VALID,0,VALID,23.5256,VALID,256,VALID,0.350391,
2012-04-23, 03:39:04,VALID,1000,VALID,1,VALID,95.2177,VALID,0,VALID,23.5256,VALID,263,VALID,1.8918,
2012-04-23, 03:40:04,VALID,999.99,VALID,1,VALID,95.2329,VALID,0,VALID,23.5256,VALID,287,VALID,1.69609,
2012-04-23, 03:41:04,VALID,999.962,VALID,1,VALID,95.2558,VALID,0,VALID,23.5061,VALID,316,VALID,1.6082,
2012-04-23, 03:42:04,VALID,999.952,VALID,1,VALID,95.2711,VALID,0,VALID,23.5061,VALID,309,VALID,1.44844,
2012-04-23, 03:43:04,VALID,999.949,VALID,1,VALID,95.3092,VALID,0,VALID,23.4866,VALID,292,VALID,1.41406,
2012-04-23, 03:44:04,VALID,999.978,VALID,1,VALID,95.3168,VALID,0,VALID,23.4458,VALID,307,VALID,1.01758,
2012-04-23, 03:45:04,VALID,999.964,VALID,1,VALID,95.3397,VALID,0,VALID,23.4671,VALID,286,VALID,0.710156,
2012-04-23, 03:46:04,VALID,1000.02,VALID,1,VALID,95.3168,VALID,0,VALID,23.4263,VALID,290,VALID,1.15352,
2012-04-23, 03:47:04,VALID,1000.04,VALID,0.5,VALID,95.355,VALID,0,VALID,23.428,VALID,266,VALID,0.563672,
2012-04-23, 03:48:04,VALID,1000.04,VALID,0,VALID,95.3703,VALID,0,VALID,23.4067,VALID,244,VALID,0.722266,
2012-04-23, 03:49:04,VALID,1000.03,VALID,0.5,VALID,95.3931,VALID,0,VALID,23.428,VALID,263,VALID,0.955078,